EST,Max TemperatureF,Mean TemperatureF,Min TemperatureF,Max Dew PointF,MeanDew PointF,Min DewpointF,Max Humidity, Mean Humidity, Min Humidity, Max Sea Level PressureIn, Mean Sea Level PressureIn, Min Sea Level PressureIn, Max VisibilityMiles, Mean VisibilityMiles, Min VisibilityMiles, Max Wind SpeedMPH, Mean Wind SpeedMPH, Max Gust SpeedMPH,PrecipitationIn, CloudCover, Events, WindDirDegrees
2012-2-1,48,42,35,48,40,27,100,87,61,30.23,30.16,30.08,10,8,2,8,2,,0.00,7,Rain,199
2012-2-2,57,45,32,48,41,30,100,78,36,30.36,30.18,30.06,10,9,2,12,4,,0.00,4,Rain,282
2012-2-3,60,44,28,36,27,21,100,64,22,30.42,30.37,30.31,10,10,10,8,2,,0.00,0,,75
2012-2-4,48,44,41,46,39,28,100,84,57,30.30,30.17,30.05,10,9,4,16,4,,0.00,7,Rain,69
2012-2-5,53,45,37,52,45,36,100,88,58,30.17,30.05,29.98,10,8,1,14,3,,0.00,7,Rain,280
2012-2-6,51,42,32,39,36,30,100,79,58,30.20,30.16,30.11,10,10,10,12,3,,0.00,7,,277
2012-2-7,51,38,24,30,27,19,100,73,28,30.22,30.18,30.14,10,10,9,10,2,,0.00,0,,252
2012-2-8,39,34,28,36,30,27,93,81,70,30.23,30.18,30.13,10,10,5,10,3,,0.00,7,Rain,295
2012-2-9,39,32,26,25,22,19,86,65,49,30.29,30.23,30.17,10,10,10,9,5,,0.00,5,,307
2012-2-10,44,34,24,28,25,21,93,74,49,30.17,30.06,29.95,10,10,10,12,2,,0.00,2,,289
2012-2-11,35,25,15,32,17,1,93,71,46,30.24,30.01,29.83,10,9,2,18,8,28,0.00,7,Rain-Snow,283
2012-2-12,32,23,14,12,7,1,68,53,40,30.32,30.26,30.23,10,10,10,16,10,17,0.00,2,Snow,271
2012-2-13,44,29,14,25,14,9,93,60,29,30.28,30.19,30.05,10,10,10,10,1,,0.00,2,,194
2012-2-14,44,37,30,36,30,25,87,73,57,30.12,30.00,29.93,10,10,7,8,2,,0.00,8,Rain,263
2012-2-15,64,50,37,37,32,21,93,59,23,30.25,30.17,30.10,10,10,9,10,3,,0.00,3,,97
2012-2-16,53,48,44,48,42,28,100,80,38,30.16,30.09,30.05,10,8,1,9,4,20,0.00,7,Rain,204
2012-2-17,53,46,39,45,36,30,100,72,41,30.18,30.13,30.10,10,10,10,9,5,,0.00,4,,267
2012-2-18,60,48,37,37,32,25,87,59,29,30.10,30.04,29.97,10,10,9,10,3,,0.00,2,Rain,358
2012-2-19,44,37,30,41,35,28,100,86,71,30.01,29.85,29.71,10,8,4,12,4,,0.00,8,Rain-Snow,67
2012-2-20,48,37,26,34,27,21,93,73,43,30.29,30.18,30.02,10,10,5,9,4,,0.00,2,Rain-Snow,294
2012-2-21,60,48,37,34,26,14,87,46,29,30.17,30.04,29.89,10,10,0,18,9,25,0.00,1,Rain,148
2012-2-22,55,42,28,46,37,25,100,90,31,29.96,29.80,29.54,10,9,4,16,1,40,0.00,4,Rain,68
2012-2-23,69,56,44,54,46,43,100,73,40,29.66,29.60,29.51,10,10,7,13,2,,0.00,4,Rain,249
2012-2-24,71,54,37,55,40,21,93,64,34,29.96,29.66,29.52,10,10,5,22,7,36,0.00,4,Rain,269
2012-2-25,41,32,23,19,17,14,80,52,38,30.33,30.14,29.98,10,10,10,17,10,31,0.00,3,,275
2012-2-26,55,38,21,28,19,12,86,51,23,30.40,30.33,30.29,10,10,10,12,3,,0.00,0,,70
2012-2-27,57,42,28,39,30,21,87,64,41,30.44,30.37,30.32,10,10,9,9,2,,0.00,3,Rain,30
2012-2-28,71,50,30,43,33,30,100,63,27,30.40,30.33,30.22,10,10,10,8,1,,0.00,0,,16
2012-2-29,66,58,50,57,52,41,100,85,64,30.19,29.97,29.81,10,10,4,14,4,,0.00,7,Rain,42